| time (UTC) | temp F | wind direction | speed MPH | gust MPH | rain 1hr in | rain 24hr in | rain mn in | humidity % | barometer mb |
| 20260504070305 | 50 | 138 | 2.0 | 2.0 | 0.00 | 0.00 | 0.00 | 63 | 1035.6 |
| 20260504050304 | 56 | 155 | 1.0 | 2.0 | 0.00 | 0.00 | 0.00 | 49 | 1035.6 |
| 20260504045804 | 57 | 155 | 1.0 | 2.0 | 0.00 | 0.00 | 0.00 | 49 | 1035.6 |
| 20260504044804 | 59 | 155 | 1.0 | 3.0 | 0.00 | 0.00 | 0.00 | 44 | 1035.6 |
| 20260504044304 | 59 | 155 | 1.0 | 5.0 | 0.00 | 0.00 | 0.00 | 43 | 1035.6 |
| 20260504043804 | 60 | 155 | 5.0 | 5.0 | 0.00 | 0.00 | 0.00 | 42 | 1035.6 |
| 20260504043304 | 61 | 178 | 3.0 | 5.0 | 0.00 | 0.00 | 0.00 | 42 | 1035.6 |
| 20260504042805 | 61 | 179 | 3.0 | 3.0 | 0.00 | 0.00 | 0.00 | 41 | 1035.6 |
| 20260504042304 | 61 | 179 | 2.0 | 5.0 | 0.00 | 0.00 | 0.00 | 41 | 1035.6 |
| 20260504041305 | 65 | 274 | 4.0 | 6.0 | 0.00 | 0.00 | 0.00 | 35 | 1035.6 |
| 20260504040804 | 65 | 339 | 3.0 | 5.0 | 0.00 | 0.00 | 0.00 | 35 | 1035.6 |
| 20260504040304 | 65 | 340 | 2.0 | 2.0 | 0.00 | 0.00 | 0.00 | 35 | 1035.6 |
| 20260504035804 | 65 | 340 | 2.0 | 3.0 | 0.00 | 0.00 | 0.00 | 35 | 1035.6 |
| 20260504035305 | 65 | 339 | 1.0 | 2.0 | 0.00 | 0.00 | 0.00 | 34 | 1035.6 |
| 20260504034804 | 67 | 339 | 0.0 | 0.0 | 0.00 | 0.00 | 0.00 | 33 | 1035.6 |
| 20260504034305 | 68 | 339 | 0.0 | 1.0 | 0.00 | 0.00 | 0.00 | 30 | 1035.6 |
| 20260504033804 | 68 | 339 | 1.0 | 3.0 | 0.00 | 0.00 | 0.00 | 30 | 1035.6 |
| 20260504033305 | 68 | 340 | 2.0 | 3.0 | 0.00 | 0.00 | 0.00 | 30 | 1035.6 |
| 20260504032805 | 69 | 340 | 3.0 | 5.0 | 0.00 | 0.00 | 0.00 | 29 | 1035.6 |
| 20260504032305 | 69 | 340 | 4.0 | 8.0 | 0.00 | 0.00 | 0.00 | 29 | 1035.6 |
| 20260504031304 | 70 | 343 | 5.0 | 7.0 | 0.00 | 0.00 | 0.00 | 29 | 1035.6 |
| 20260504030805 | 70 | 341 | 7.0 | 8.0 | 0.00 | 0.00 | 0.00 | 29 | 1035.6 |
| 20260504030304 | 71 | 342 | 6.0 | 7.0 | 0.00 | 0.00 | 0.00 | 30 | 1035.6 |
| 20260504025806 | 71 | 352 | 6.0 | 10.0 | 0.00 | 0.00 | 0.00 | 30 | 1035.6 |
| 20260504025304 | 71 | 338 | 6.0 | 12.0 | 0.00 | 0.00 | 0.00 | 30 | 1035.6 |
| 20260504024804 | 72 | 331 | 7.0 | 7.0 | 0.00 | 0.00 | 0.00 | 29 | 1035.6 |
| 20260504023804 | 72 | 329 | 8.0 | 9.0 | 0.00 | 0.00 | 0.00 | 28 | 1035.6 |
| 20260504023304 | 73 | 334 | 5.0 | 7.0 | 0.00 | 0.00 | 0.00 | 28 | 1035.6 |
| 20260504022306 | 74 | 328 | 5.0 | 8.0 | 0.00 | 0.00 | 0.00 | 26 | 1035.6 |
| 20260504021804 | 74 | 330 | 8.0 | 8.0 | 0.00 | 0.00 | 0.00 | 26 | 1035.6 |
| 20260504021304 | 74 | 333 | 7.0 | 12.0 | 0.00 | 0.00 | 0.00 | 25 | 1035.6 |
| 20260504020304 | 75 | 0 | 0.0 | 0.0 | 0.00 | 0.00 | 0.00 | 24 | 1035.6 |
| 20260504015804 | 75 | 0 | 0.0 | 0.0 | 0.00 | 0.00 | 0.00 | 23 | 1035.6 |
| 20260504014805 | 76 | 311 | 3.0 | 3.0 | 0.00 | 0.00 | 0.00 | 21 | 1035.6 |
| 20260504014304 | 76 | 311 | 3.0 | 7.0 | 0.00 | 0.00 | 0.00 | 19 | 1035.6 |
| 20260504013804 | 76 | 315 | 4.0 | 8.0 | 0.00 | 0.00 | 0.00 | 19 | 1035.6 |
| 20260504012304 | 77 | 309 | 9.0 | 10.0 | 0.00 | 0.00 | 0.00 | 20 | 1035.6 |
| 20260504011804 | 77 | 279 | 3.0 | 12.0 | 0.00 | 0.00 | 0.00 | 20 | 1035.6 |
| 20260504011304 | 77 | 258 | 4.0 | 6.0 | 0.00 | 0.00 | 0.00 | 21 | 1035.6 |
| 20260504010805 | 77 | 278 | 6.0 | 8.0 | 0.00 | 0.00 | 0.00 | 20 | 1035.6 |
| 20260504010304 | 77 | 247 | 7.0 | 12.0 | 0.00 | 0.00 | 0.00 | 20 | 1035.6 |
| 20260504005804 | 77 | 266 | 6.0 | 12.0 | 0.00 | 0.00 | 0.00 | 20 | 1035.6 |
| 20260504005306 | 77 | 310 | 7.0 | 10.0 | 0.00 | 0.00 | 0.00 | 20 | 1035.6 |
| 20260504004804 | 77 | 300 | 10.0 | 13.0 | 0.00 | 0.00 | 0.00 | 20 | 1035.6 |
| 20260504003804 | 78 | 252 | 10.0 | 15.0 | 0.00 | 0.00 | 0.00 | 20 | 1035.6 |
| 20260504003304 | 78 | 262 | 9.0 | 12.0 | 0.00 | 0.00 | 0.00 | 19 | 1035.6 |
| 20260504002804 | 78 | 293 | 11.0 | 12.0 | 0.00 | 0.00 | 0.00 | 19 | 1035.6 |
| 20260504002304 | 78 | 276 | 11.0 | 13.0 | 0.00 | 0.00 | 0.00 | 19 | 1035.6 |
| 20260504001804 | 78 | 296 | 8.0 | 15.0 | 0.00 | 0.00 | 0.00 | 19 | 1035.6 |
| 20260504001304 | 78 | 0 | 13.0 | 14.0 | 0.00 | 0.00 | 0.00 | 20 | 1035.6 |
| 20260504000804 | 78 | 257 | 3.0 | 7.0 | 0.00 | 0.00 | 0.00 | 20 | 1035.6 |
| 20260504000306 | 78 | 315 | 7.0 | 12.0 | 0.00 | 0.00 | 0.00 | 20 | 1035.6 |
| 20260503235807 | 78 | 323 | 7.0 | 12.0 | 0.00 | 0.00 | 0.00 | 20 | 1035.6 |
| 20260503235307 | 78 | 300 | 11.0 | 12.0 | 0.00 | 0.00 | 0.00 | 20 | 1035.6 |
| 20260503234807 | 78 | 258 | 5.0 | 9.0 | 0.00 | 0.00 | 0.00 | 20 | 1035.6 |
| 20260503234306 | 78 | 269 | 5.0 | 13.0 | 0.00 | 0.00 | 0.00 | 20 | 1035.6 |
| 20260503233306 | 78 | 252 | 8.0 | 10.0 | 0.00 | 0.00 | 0.00 | 21 | 1035.6 |
| 20260503231806 | 77 | 269 | 10.0 | 15.0 | 0.00 | 0.00 | 0.00 | 20 | 1035.6 |
| 20260503231306 | 77 | 267 | 8.0 | 16.0 | 0.00 | 0.00 | 0.00 | 19 | 1035.6 |
| 20260503230806 | 78 | 274 | 11.0 | 16.0 | 0.00 | 0.00 | 0.00 | 19 | 1035.6 |
| 20260503230307 | 78 | 290 | 6.0 | 6.0 | 0.00 | 0.00 | 0.00 | 19 | 1035.6 |
| 20260503225307 | 78 | 271 | 10.0 | 12.0 | 0.00 | 0.00 | 0.00 | 20 | 1035.6 |
| 20260503224807 | 78 | 257 | 5.0 | 12.0 | 0.00 | 0.00 | 0.00 | 21 | 1035.6 |
| 20260503224306 | 78 | 290 | 5.0 | 12.0 | 0.00 | 0.00 | 0.00 | 22 | 1035.6 |
| 20260503223807 | 77 | 249 | 12.0 | 16.0 | 0.00 | 0.00 | 0.00 | 22 | 1035.6 |
| 20260503222306 | 77 | 273 | 5.0 | 12.0 | 0.00 | 0.00 | 0.00 | 23 | 1035.6 |
| 20260503221806 | 77 | 295 | 4.0 | 10.0 | 0.00 | 0.00 | 0.00 | 23 | 1035.6 |
| 20260503221306 | 77 | 296 | 8.0 | 12.0 | 0.00 | 0.00 | 0.00 | 22 | 1035.6 |
| 20260503220306 | 78 | 327 | 6.0 | 15.0 | 0.00 | 0.00 | 0.00 | 22 | 1035.6 |
| 20260503215806 | 78 | 204 | 6.0 | 6.0 | 0.00 | 0.00 | 0.00 | 24 | 1035.6 |
| 20260503214806 | 77 | 276 | 9.0 | 10.0 | 0.00 | 0.00 | 0.00 | 24 | 1035.6 |
| 20260503214306 | 77 | 234 | 8.0 | 8.0 | 0.00 | 0.00 | 0.00 | 24 | 1035.6 |
| 20260503213806 | 76 | 241 | 9.0 | 15.0 | 0.00 | 0.00 | 0.00 | 25 | 1035.6 |
| 20260503213306 | 76 | 253 | 6.0 | 9.0 | 0.00 | 0.00 | 0.00 | 25 | 1035.6 |
| 20260503212306 | 76 | 261 | 12.0 | 14.0 | 0.00 | 0.00 | 0.00 | 25 | 1035.6 |
| 20260503211806 | 76 | 224 | 14.0 | 14.0 | 0.00 | 0.00 | 0.00 | 25 | 1035.6 |
| 20260503211306 | 76 | 238 | 8.0 | 14.0 | 0.00 | 0.00 | 0.00 | 25 | 1035.6 |
| 20260503210807 | 76 | 304 | 5.0 | 10.0 | 0.00 | 0.00 | 0.00 | 25 | 1035.6 |
| 20260503210306 | 76 | 236 | 10.0 | 15.0 | 0.00 | 0.00 | 0.00 | 27 | 1035.6 |
| 20260503205807 | 76 | 240 | 9.0 | 9.0 | 0.00 | 0.00 | 0.00 | 25 | 1035.6 |
| 20260503205307 | 77 | 239 | 9.0 | 12.0 | 0.00 | 0.00 | 0.00 | 26 | 1035.6 |
| 20260503204806 | 76 | 245 | 8.0 | 13.0 | 0.00 | 0.00 | 0.00 | 26 | 1035.6 |
| 20260503203806 | 75 | 296 | 7.0 | 13.0 | 0.00 | 0.00 | 0.00 | 26 | 1035.6 |
| 20260503202806 | 75 | 271 | 5.0 | 9.0 | 0.00 | 0.00 | 0.00 | 27 | 1035.6 |
| 20260503202306 | 75 | 276 | 7.0 | 7.0 | 0.00 | 0.00 | 0.00 | 28 | 1035.6 |
| 20260503201306 | 74 | 217 | 9.0 | 12.0 | 0.00 | 0.00 | 0.00 | 30 | 1035.6 |
| 20260503200306 | 73 | 245 | 12.0 | 14.0 | 0.00 | 0.00 | 0.00 | 28 | 1035.6 |
| 20260503195806 | 73 | 248 | 12.0 | 15.0 | 0.00 | 0.00 | 0.00 | 27 | 1035.6 |
| 20260503194806 | 73 | 265 | 9.0 | 16.0 | 0.00 | 0.00 | 0.00 | 30 | 1035.6 |
| 20260503194306 | 73 | 256 | 8.0 | 13.0 | 0.00 | 0.00 | 0.00 | 28 | 1035.6 |
| 20260503193307 | 73 | 283 | 10.0 | 16.0 | 0.00 | 0.00 | 0.00 | 28 | 1035.6 |
| 20260503192806 | 73 | 241 | 6.0 | 6.0 | 0.00 | 0.00 | 0.00 | 29 | 1035.6 |
| 20260503191806 | 72 | 256 | 15.0 | 20.0 | 0.00 | 0.00 | 0.00 | 29 | 1035.6 |
| 20260503191305 | 72 | 244 | 7.0 | 7.0 | 0.00 | 0.00 | 0.00 | 29 | 1035.6 |
| 20260503190806 | 72 | 355 | 1.0 | 6.0 | 0.00 | 0.00 | 0.00 | 28 | 1035.6 |
| 20260503190306 | 72 | 343 | 11.0 | 12.0 | 0.00 | 0.00 | 0.00 | 28 | 1035.6 |
| 20260503185806 | 72 | 334 | 9.0 | 15.0 | 0.00 | 0.00 | 0.00 | 29 | 1035.6 |
| 20260503185306 | 72 | 343 | 10.0 | 15.0 | 0.00 | 0.00 | 0.00 | 30 | 1035.6 |
| 20260503184306 | 71 | 167 | 2.0 | 6.0 | 0.00 | 0.00 | 0.00 | 36 | 1035.6 |
| 20260503183806 | 71 | 184 | 5.0 | 8.0 | 0.00 | 0.00 | 0.00 | 37 | 1035.6 |
| 20260503183306 | 71 | 200 | 5.0 | 8.0 | 0.00 | 0.00 | 0.00 | 38 | 1035.6 |
| 20260503182806 | 70 | 196 | 3.0 | 6.0 | 0.00 | 0.00 | 0.00 | 38 | 1035.6 |
| 20260503182306 | 70 | 101 | 2.0 | 5.0 | 0.00 | 0.00 | 0.00 | 39 | 1035.6 |
| 20260503181805 | 70 | 196 | 5.0 | 6.0 | 0.00 | 0.00 | 0.00 | 41 | 1035.6 |
| 20260503181306 | 69 | 266 | 6.0 | 7.0 | 0.00 | 0.00 | 0.00 | 38 | 1035.6 |
| 20260503180806 | 69 | 315 | 6.0 | 10.0 | 0.00 | 0.00 | 0.00 | 39 | 1035.6 |
| 20260503175805 | 69 | 242 | 5.0 | 6.0 | 0.00 | 0.00 | 0.00 | 41 | 1035.6 |
| 20260503175306 | 69 | 236 | 7.0 | 9.0 | 0.00 | 0.00 | 0.00 | 41 | 1035.6 |
| 20260503174805 | 68 | 213 | 6.0 | 9.0 | 0.00 | 0.00 | 0.00 | 43 | 1035.6 |
| 20260503174305 | 68 | 215 | 2.0 | 7.0 | 0.00 | 0.00 | 0.00 | 43 | 1035.6 |
| 20260503173805 | 67 | 257 | 3.0 | 5.0 | 0.00 | 0.00 | 0.00 | 43 | 1035.6 |
| 20260503173306 | 67 | 208 | 3.0 | 10.0 | 0.00 | 0.00 | 0.00 | 43 | 1035.6 |
| 20260503172806 | 67 | 200 | 3.0 | 7.0 | 0.00 | 0.00 | 0.00 | 45 | 1035.6 |
| 20260503172305 | 67 | 207 | 7.0 | 12.0 | 0.00 | 0.00 | 0.00 | 46 | 1035.6 |
| 20260503171805 | 66 | 214 | 7.0 | 7.0 | 0.00 | 0.00 | 0.00 | 46 | 1035.6 |
| 20260503171306 | 66 | 213 | 7.0 | 7.0 | 0.00 | 0.00 | 0.00 | 46 | 1035.6 |
| 20260503170806 | 65 | 213 | 5.0 | 8.0 | 0.00 | 0.00 | 0.00 | 48 | 1035.6 |
| 20260503170306 | 65 | 188 | 5.0 | 7.0 | 0.00 | 0.00 | 0.00 | 49 | 1035.6 |
| 20260503150805 | 57 | 221 | 10.0 | 10.0 | 0.00 | 0.00 | 0.00 | 57 | 1035.6 |
| 20260503150305 | 56 | 221 | 10.0 | 12.0 | 0.00 | 0.00 | 0.00 | 57 | 1035.6 |
| 20260503140305 | 50 | 222 | 8.0 | 9.0 | 0.00 | 0.00 | 0.00 | 67 | 1035.6 |
| 20260503130306 | 47 | 211 | 5.0 | 5.0 | 0.00 | 0.00 | 0.00 | 73 | 1035.6 |
| 20260503110805 | 47 | 57 | 0.0 | 3.0 | 0.00 | 0.00 | 0.00 | 71 | 1035.6 |
| 20260503110305 | 48 | 55 | 3.0 | 5.0 | 0.00 | 0.00 | 0.00 | 69 | 1035.6 |
| 20260503090305 | 53 | 313 | 0.0 | 1.0 | 0.00 | 0.00 | 0.00 | 59 | 1035.6 |
| 20260503081305 | 55 | 353 | 2.0 | 2.0 | 0.00 | 0.00 | 0.00 | 58 | 1035.6 |
| 20260503080804 | 55 | 0 | 2.0 | 22.0 | 0.00 | 0.00 | 0.00 | 58 | 1035.6 |
| 20260503080305 | 55 | 0 | 3.0 | 5.0 | 0.00 | 0.00 | 0.00 | 58 | 1035.6 |